Location: Newark
(48.4472°N, 1.4892°E)
Time: 02:20:19
(UTC+00:00)

Vanguard 2 - All Passes

Search period start: 22 November 2019 00:00
Search period end: 02 December 2019 00:00
Orbit: 554 x 2937 km, 32.9° (Epoch: 21 November)

Date Brightness Start Highest point End Pass type
(mag) Time Alt. Az. Time Alt. Az. Time Alt. Az.
22 Nov - 05:05:14 10° S 05:10:50 13° SSE 05:15:37 10° SE visible
22 Nov - 07:11:02 10° SW 07:19:51 24° S 07:26:08 10° ESE daylight
22 Nov - 09:21:01 10° WSW 09:28:12 24° S 09:33:13 10° SE daylight
22 Nov - 11:32:58 10° SW 11:35:27 12° SSW 11:37:36 10° S daylight
23 Nov - 05:20:12 10° SSW 05:28:32 18° SSE 05:35:07 10° ESE visible
23 Nov - 07:28:04 10° SW 07:37:35 27° S 07:44:08 10° ESE daylight
23 Nov - 09:38:46 10° WSW 09:45:47 24° SSW 09:50:45 10° SE daylight
24 Nov - 05:36:12 10° SSW 05:46:15 23° SSE 05:53:46 10° ESE visible
24 Nov - 07:45:23 10° SW 07:55:18 29° S 08:01:58 10° ESE daylight
24 Nov - 09:56:40 10° WSW 10:03:19 22° SSW 10:08:07 10° SSE daylight
25 Nov - 03:47:32 10° S 03:54:33 14° SSE 04:00:39 10° ESE visible
25 Nov - 05:52:45 10° SW 06:03:59 27° SSE 06:12:02 10° ESE visible
25 Nov - 08:02:54 10° WSW 08:12:59 31° S 08:19:41 10° SE daylight
25 Nov - 10:14:45 10° WSW 10:20:47 20° SSW 10:25:17 10° SSE daylight
26 Nov - 04:02:18 10° S 04:12:10 19° SSE 04:20:14 10° ESE visible
26 Nov - 06:09:41 10° SW 06:21:42 31° S 06:30:05 10° ESE visible
26 Nov - 08:20:34 10° WSW 08:30:36 31° S 08:37:17 10° SE daylight
26 Nov - 10:33:06 10° WSW 10:38:10 16° SSW 10:42:07 10° S daylight
27 Nov - 04:18:07 10° SSW 04:29:49 24° SSE 04:38:59 10° ESE visible
27 Nov - 06:26:54 10° SW 06:39:25 34° S 06:47:57 10° ESE visible
27 Nov - 08:38:23 10° WSW 08:48:11 30° SSW 08:54:46 10° SE daylight
27 Nov - 10:51:59 10° WSW 10:55:27 13° SW 10:58:22 10° SSW daylight
28 Nov - 02:30:39 10° SSE 02:37:52 14° SE 02:44:26 10° ESE visible
28 Nov - 04:34:31 10° SSW 04:47:28 29° SSE 04:57:20 10° ESE visible
28 Nov - 06:44:20 10° WSW 06:57:07 36° S 07:05:43 10° ESE visible
28 Nov - 08:56:20 10° WSW 09:05:42 27° SSW 09:12:07 10° SSE daylight
29 Nov - 02:44:59 10° S 02:55:20 19° SSE 03:04:25 10° ESE visible
29 Nov - 04:51:19 10° SW 05:05:09 33° SSE 05:15:26 10° ESE visible
29 Nov - 07:01:56 10° WSW 07:14:47 37° S 07:23:23 10° ESE daylight
29 Nov - 09:14:26 10° WSW 09:23:07 24° SSW 09:29:15 10° SSE daylight
30 Nov - 03:00:31 10° SSW 03:12:51 24° SSE 03:23:23 10° ESE visible
30 Nov - 05:08:25 10° SW 05:22:51 37° S 05:33:22 10° ESE visible
30 Nov - 07:19:41 10° WSW 07:32:25 36° SSW 07:40:57 10° SE daylight
30 Nov - 09:32:45 10° WSW 09:40:27 21° SSW 09:46:07 10° S daylight
01 Dec - 01:15:13 10° SSE 01:20:56 12° SE 01:26:29 10° ESE visible
01 Dec - 03:16:43 10° SSW 03:30:25 29° SSE 03:41:52 10° ESE visible
01 Dec - 05:25:44 10° SW 05:40:32 39° S 05:51:12 10° ESE visible
01 Dec - 07:37:32 10° WSW 07:49:58 35° SSW 07:58:23 10° SE daylight
01 Dec - 09:51:25 10° WSW 09:57:41 17° SW 10:02:34 10° S daylight
